DW8790 Maspalomas ES current weather conditions

sailwx.info

Wind from 258 at 8 knots gusting 13

Air temperature 25.6° C
Dewpoint 15.6° C

Last reported at 2014-Oct-31 14:50 UTC.
Time now 2014-Oct-31 15:41 UTC

Location: N 27°46' W 015°34'.
View on Google Maps.

See reports from other nearby stations

  
Tides and Currents Weather Stations Pressure Air Temp Water Temp Dewpoint Dewpoint Depression Visibility Wind Speed Wind Dir Waves Ship Positions
date/time (UTC)wind fromknots sea level pressurealtimeterstation pressurevisibilityair tempwater tempwave heightnotes
2014-Oct-31 14:50 258 8 gusting 13 25.6
2014-Oct-31 14:40 250 8 gusting 12 25.6
2014-Oct-31 14:30 259 6 gusting 12 25.6
2014-Oct-31 14:20 240 7 gusting 13 26.1
2014-Oct-31 14:10 264 7 gusting 10 26.1
2014-Oct-31 14:00 220 5 gusting 12 25.6
2014-Oct-31 13:50 265 7 gusting 13 26.1
2014-Oct-31 13:40 266 6 gusting 10 26.1
2014-Oct-31 13:30 188 5 gusting 10 26.1
2014-Oct-31 13:20 269 5 gusting 10 25.6
2014-Oct-31 13:10 220 3 gusting 8 25.0
2014-Oct-31 13:00 279 7 gusting 13 25.6
2014-Oct-31 12:50 268 5 gusting 8 26.1
2014-Oct-31 12:40 232 7 gusting 10 26.1
2014-Oct-31 12:30 212 4 gusting 10 25.6
2014-Oct-31 12:20 254 6 gusting 10 26.1
2014-Oct-31 12:10 199 2 gusting 10 26.7
2014-Oct-31 12:00 228 2 gusting 6 26.1
2014-Oct-31 11:50 170 5 gusting 8 26.1
2014-Oct-31 11:40 156 4 gusting 6 26.1
2014-Oct-31 11:30 142 4 gusting 7 26.1
2014-Oct-31 11:20 157 4 gusting 7 25.6
2014-Oct-31 11:10 174 4 gusting 6 26.1
2014-Oct-31 11:00 133 6 gusting 8 25.6
2014-Oct-31 10:50 123 5 gusting 8 25.6
2014-Oct-31 10:40 148 4 gusting 7 25.6
2014-Oct-31 10:30 148 5 gusting 10 25.6
2014-Oct-31 10:20 122 6 gusting 8 26.1
2014-Oct-31 10:10 121 4 gusting 7 26.1
2014-Oct-31 10:00 111 2 gusting 2 25.0
2014-Oct-31 09:50 270 1 gusting 2 25.0
2014-Oct-31 09:40 219 0 gusting 2 25.6
2014-Oct-31 09:30 210 0 gusting 2 25.6
2014-Oct-31 09:20 329 24.4
2014-Oct-31 09:10 329 1 gusting 4 24.4
2014-Oct-31 09:00 330 2 gusting 5 23.9
2014-Oct-31 08:50 323 2 gusting 6 23.3
2014-Oct-31 08:40 341 4 gusting 6 22.2
2014-Oct-31 08:30 343 4 gusting 5 22.2
2014-Oct-31 08:20 351 3 gusting 6 21.7
2014-Oct-31 08:10 357 2 gusting 6 21.1
2014-Oct-31 08:00 349 4 gusting 6 20.0
2014-Oct-31 07:50 336 2 gusting 6 20.0
2014-Oct-31 07:40 357 2 gusting 6 20.0
2014-Oct-31 07:30 011 0 gusting 6 20.0
2014-Oct-31 07:20 345 4 gusting 6 19.4
2014-Oct-31 07:10 008 1 gusting 5 19.4
2014-Oct-31 07:00 348 3 gusting 6 19.4
2014-Oct-31 06:50 343 1 gusting 4 19.4
2014-Oct-31 06:40 336 2 gusting 5 19.4
2014-Oct-31 06:30 346 3 gusting 5 19.4
2014-Oct-31 06:20 354 4 gusting 6 19.4
2014-Oct-31 06:10 345 2 gusting 5 19.4
2014-Oct-31 06:00 336 1 gusting 4 19.4
2014-Oct-31 05:50 357 2 gusting 4 19.4
2014-Oct-31 05:40 358 2 gusting 5 19.4
2014-Oct-31 05:30 007 2 gusting 5 19.4
2014-Oct-31 05:20 347 2 gusting 5 19.4
2014-Oct-31 05:10 337 0 gusting 5 20.0
2014-Oct-31 05:00 343 4 gusting 6 20.0
2014-Oct-31 04:50 352 4 gusting 7 20.0
2014-Oct-31 04:40 351 5 gusting 6 20.0
2014-Oct-31 04:30 348 4 gusting 6 20.0
2014-Oct-31 04:20 347 4 gusting 6 20.0
2014-Oct-31 04:10 342 5 gusting 7 20.0
2014-Oct-31 04:00 341 5 gusting 8 20.0
2014-Oct-31 03:50 342 4 gusting 7 20.0
2014-Oct-31 03:40 336 6 gusting 7 20.0
2014-Oct-31 03:30 342 6 gusting 7 20.0
2014-Oct-31 03:20 343 4 gusting 6 20.0
2014-Oct-31 03:10 355 3 gusting 6 20.0
2014-Oct-31 03:00 354 4 gusting 6 20.0
2014-Oct-31 02:50 345 5 gusting 6 20.0
2014-Oct-31 02:40 346 4 gusting 6 20.0
2014-Oct-31 02:30 358 4 gusting 6 20.0
2014-Oct-31 02:20 346 5 gusting 6 20.0
2014-Oct-31 02:10 350 1 gusting 6 20.0
2014-Oct-31 02:00 20.0
2014-Oct-31 01:50 20.0
2014-Oct-31 01:40 342 0 gusting 2 20.0
2014-Oct-31 01:30 329 0 gusting 2 20.0
2014-Oct-31 01:20 037 20.0
2014-Oct-31 01:10 353 2 gusting 4 20.6
2014-Oct-31 01:00 354 2 gusting 4 20.6
2014-Oct-31 00:50 353 2 gusting 5 20.6
2014-Oct-31 00:40 002 2 gusting 5 20.6
2014-Oct-31 00:30 002 4 gusting 6 20.6
2014-Oct-31 00:20 353 2 gusting 6 20.6
2014-Oct-31 00:11 354 2 gusting 5 21.1
2014-Oct-31 00:00 347 2 gusting 5 21.1
2014-Oct-30 23:50 341 4 gusting 6 21.1
2014-Oct-30 23:40 337 2 gusting 5 21.1
2014-Oct-30 23:30 335 4 gusting 6 21.1
2014-Oct-30 23:20 346 4 gusting 6 21.1
2014-Oct-30 23:10 340 4 gusting 6 21.1
2014-Oct-30 23:00 333 4 gusting 6 21.1
2014-Oct-30 22:50 342 4 gusting 6 21.1
2014-Oct-30 22:40 312 2 gusting 4 21.1
2014-Oct-30 22:30 312 1 gusting 4 21.7
2014-Oct-30 22:20 317 2 gusting 6 21.7
2014-Oct-30 22:10 327 4 gusting 6 21.7
2014-Oct-30 22:00 320 4 gusting 6 21.7
2014-Oct-30 21:50 320 4 gusting 5 21.1
2014-Oct-30 21:40 293 2 gusting 4 21.7
2014-Oct-30 21:30 327 1 gusting 4 21.7
2014-Oct-30 21:20 314 2 gusting 5 21.7
2014-Oct-30 21:10 330 2 gusting 6 21.7
2014-Oct-30 21:00 335 2 gusting 5 21.7
2014-Oct-30 20:50 318 2 gusting 6 21.7
2014-Oct-30 20:40 313 2 gusting 5 21.7
2014-Oct-30 20:30 290 1 gusting 5 21.7
2014-Oct-30 20:20 316 2 gusting 5 22.2
2014-Oct-30 20:10 285 2 gusting 5 22.2
2014-Oct-30 20:00 292 1 gusting 4 22.2
2014-Oct-30 19:50 183 1 gusting 2 22.8
2014-Oct-30 19:40 183 22.8
2014-Oct-30 19:30 126 22.8
2014-Oct-30 19:20 107 2 gusting 5 22.8
2014-Oct-30 19:10 119 2 gusting 7 22.8
2014-Oct-30 19:00 103 3 gusting 6 22.8
2014-Oct-30 18:50 144 0 gusting 5 22.8
2014-Oct-30 18:40 148 2 gusting 6 22.8
2014-Oct-30 18:30 141 3 gusting 6 22.8
2014-Oct-30 18:20 120 5 gusting 7 22.8
2014-Oct-30 18:10 122 5 gusting 7 22.8
2014-Oct-30 18:00 127 6 gusting 7 23.3
2014-Oct-30 17:50 104 5 gusting 7 23.3
2014-Oct-30 17:40 107 5 gusting 8 23.3
2014-Oct-30 17:30 127 5 gusting 7 23.3
2014-Oct-30 17:20 112 4 gusting 8 23.3
2014-Oct-30 17:10 120 4 gusting 7 23.3
2014-Oct-30 17:00 124 4 gusting 6 23.3
2014-Oct-30 16:50 124 4 gusting 6 23.3
2014-Oct-30 16:40 100 3 gusting 6 23.3
2014-Oct-30 16:30 122 4 gusting 6 23.9
2014-Oct-30 16:20 132 3 gusting 6 23.9
2014-Oct-30 16:10 139 3 gusting 6 23.9
2014-Oct-30 16:00 132 5 gusting 8 23.9
2014-Oct-30 15:50 122 4 gusting 6 23.9
2014-Oct-30 15:40 118 5 gusting 7 23.9
2014-Oct-30 15:30 108 4 gusting 7 23.9
2014-Oct-30 15:20 124 3 gusting 7 24.4
2014-Oct-30 15:10 114 5 gusting 8 24.4
2014-Oct-30 15:00 131 2 gusting 7 25.0
2014-Oct-30 14:50 141 5 gusting 6 25.6
2014-Oct-30 14:40 153 1 gusting 6 25.6
2014-Oct-30 14:30 130 4 gusting 7 25.0
2014-Oct-30 14:20 108 5 gusting 8 25.0
2014-Oct-30 14:10 132 4 gusting 6 25.6
2014-Oct-30 14:00 161 4 gusting 6 26.1
2014-Oct-30 13:50 114 4 gusting 7 26.1
2014-Oct-30 13:40 170 0 gusting 6 26.1
2014-Oct-30 13:30 105 5 gusting 8 25.0
2014-Oct-30 13:20 125 6 gusting 7 24.4
2014-Oct-30 13:10 109 5 gusting 7 24.4
2014-Oct-30 13:00 165 3 gusting 6 24.4
2014-Oct-30 12:50 119 5 gusting 8 24.4
2014-Oct-30 12:40 141 4 gusting 8 25.0
2014-Oct-30 12:30 117 3 gusting 8 26.1
2014-Oct-30 12:20 126 4 gusting 10 25.6
2014-Oct-30 12:10 121 7 gusting 10 25.6
2014-Oct-30 12:00 129 5 gusting 10 25.6
2014-Oct-30 11:50 114 6 gusting 13 26.1
2014-Oct-30 11:40 151 5 gusting 10 26.1
2014-Oct-30 11:30 165 5 gusting 10 26.1
2014-Oct-30 11:20 132 6 gusting 10 26.1
2014-Oct-30 11:10 129 1 gusting 6 26.1
2014-Oct-30 11:00 106 4 gusting 8 26.1
2014-Oct-30 10:50 163 4 gusting 7 25.6
2014-Oct-30 10:40 156 2 gusting 7 25.6
2014-Oct-30 10:30 114 5 gusting 7 25.6
2014-Oct-30 10:20 168 3 gusting 7 26.1
2014-Oct-30 10:10 133 2 gusting 6 26.1
2014-Oct-30 10:00 189 25.6
2014-Oct-30 09:50 281 0 gusting 2 25.0
2014-Oct-30 09:40 307 1 gusting 5 24.4
2014-Oct-30 09:30 259 1 gusting 4 24.4
2014-Oct-30 09:20 338 0 gusting 2 24.4
2014-Oct-30 09:10 282 0 gusting 2 24.4
2014-Oct-30 09:00 352 1 gusting 4 23.9
2014-Oct-30 08:50 339 2 gusting 4 23.3
2014-Oct-30 08:40 329 2 gusting 4 22.8
2014-Oct-30 08:30 332 2 gusting 5 22.2
2014-Oct-30 08:20 357 4 gusting 6 22.2
2014-Oct-30 08:10 356 4 gusting 6 21.7
2014-Oct-30 08:00 347 1 gusting 6 21.1
2014-Oct-30 07:50 353 2 gusting 6 20.6
2014-Oct-30 07:40 355 4 gusting 7 20.0
2014-Oct-30 07:30 350 2 gusting 6 20.0
2014-Oct-30 07:20 002 4 gusting 7 20.0
2014-Oct-30 07:10 350 4 gusting 6 19.4
2014-Oct-30 07:00 348 2 gusting 6 19.4
2014-Oct-30 06:50 355 4 gusting 5 19.4
2014-Oct-30 06:40 343 2 gusting 5 19.4
2014-Oct-30 06:30 342 1 gusting 4 18.9
2014-Oct-30 06:20 296 0 gusting 1 18.9
2014-Oct-30 06:10 296 19.4
2014-Oct-30 06:00 296 19.4
2014-Oct-30 05:50 296 1 gusting 2 19.4
2014-Oct-30 05:40 258 0 gusting 2 19.4
2014-Oct-30 05:30 003 1 gusting 5 20.0
2014-Oct-30 05:20 352 2 gusting 6 19.4
2014-Oct-30 05:10 009 5 gusting 6 19.4
2014-Oct-30 05:00 19.4
2014-Oct-30 04:50 334 19.4
2014-Oct-30 04:40 331 0 gusting 2 19.4
2014-Oct-30 04:30 329 1 gusting 2 19.4
2014-Oct-30 04:20 015 19.4
2014-Oct-30 04:10 015 19.4
2014-Oct-30 04:00 015 20.0
2014-Oct-30 03:50 015 20.0
2014-Oct-30 03:40 015 20.0
2014-Oct-30 03:30 051 0 gusting 6 20.0
2014-Oct-30 03:20 022 4 gusting 7 20.6
2014-Oct-30 03:10 357 3 gusting 7 20.6
2014-Oct-30 03:00 345 5 gusting 6 20.6
2014-Oct-30 02:50 338 4 gusting 6 20.0
2014-Oct-30 02:40 345 2 gusting 5 20.0
2014-Oct-30 02:30 306 2 gusting 5 20.0
2014-Oct-30 02:20 323 4 gusting 5 20.0
2014-Oct-30 02:10 339 3 gusting 4 20.0
2014-Oct-30 02:00 337 1 gusting 2 20.0
2014-Oct-30 01:50 009 0 gusting 2 20.0
2014-Oct-30 01:40 009 20.0
2014-Oct-30 01:30 009 20.0
2014-Oct-30 01:20 009 20.6
2014-Oct-30 01:10 009 20.6
2014-Oct-30 01:00 009 20.6
2014-Oct-30 00:50 009 0 gusting 2 20.6
2014-Oct-30 00:40 338 20.6
2014-Oct-30 00:30 345 2 gusting 4 21.1
2014-Oct-30 00:20 348 1 gusting 4 21.1
2014-Oct-30 00:10 357 2 gusting 4 20.6
2014-Oct-30 00:00 339 1 gusting 2 21.1
2014-Oct-29 23:50 337 0 gusting 2 21.1
2014-Oct-29 23:40 349 1 gusting 2 21.1
2014-Oct-29 23:30 078 21.1
2014-Oct-29 23:20 078 0 gusting 2 21.1
2014-Oct-29 23:10 078 21.1
2014-Oct-29 23:00 275 21.1
2014-Oct-29 22:50 275 21.1
2014-Oct-29 22:40 275 21.1
2014-Oct-29 22:30 275 21.7
2014-Oct-29 22:20 275 21.7
2014-Oct-29 22:10 275 21.7
2014-Oct-29 22:00 275 21.7
2014-Oct-29 21:50 275 0 gusting 1 22.2
2014-Oct-29 21:40 275 22.2
2014-Oct-29 21:30 275 2 gusting 2 22.8
2014-Oct-29 21:20 275 1 gusting 2 22.8
2014-Oct-29 21:10 273 0 gusting 4 22.8
2014-Oct-29 21:00 286 1 gusting 2 22.8
2014-Oct-29 20:50 286 1 gusting 2 22.8
2014-Oct-29 20:40 286 0 gusting 2 22.8
2014-Oct-29 20:30 286 1 gusting 2 22.8
2014-Oct-29 20:20 279 22.8
2014-Oct-29 20:10 326 23.3
2014-Oct-29 20:00 205 23.3
2014-Oct-29 19:50 266 2 gusting 4 23.3
2014-Oct-29 19:40 066 23.3
2014-Oct-29 19:30 108 0 gusting 4 23.3
2014-Oct-29 19:20 105 2 gusting 4 23.3
2014-Oct-29 19:10 121 2 gusting 4 23.3
2014-Oct-29 19:00 114 1 gusting 6 23.9
2014-Oct-29 18:50 105 4 gusting 7 23.9
2014-Oct-29 18:40 076 6 gusting 10 23.9
2014-Oct-29 18:30 099 5 gusting 6 23.9
2014-Oct-29 18:20 106 4 gusting 8 24.4
2014-Oct-29 18:10 107 5 gusting 10 24.4
2014-Oct-29 18:00 102 6 gusting 11 25.0
2014-Oct-29 17:50 109 6 gusting 10 25.6
2014-Oct-29 17:40 109 6 gusting 10 25.6
2014-Oct-29 17:30 101 8 gusting 12 26.1
2014-Oct-29 17:20 105 6 gusting 12 26.1
2014-Oct-29 17:10 112 6 gusting 13 26.1
2014-Oct-29 17:00 093 7 gusting 12 26.1
2014-Oct-29 16:50 106 5 gusting 13 26.1
2014-Oct-29 16:40 100 7 gusting 14 26.7
2014-Oct-29 16:30 106 7 gusting 13 26.7
2014-Oct-29 16:20 126 9 gusting 13 26.7
2014-Oct-29 16:10 090 7 gusting 13 26.7
2014-Oct-29 16:00 098 8 gusting 13 27.2
2014-Oct-29 15:50 109 9 gusting 13 27.2
2014-Oct-29 15:40 108 9 gusting 17 27.2
2014-Oct-29 15:30 093 12 gusting 17 26.7
2014-Oct-29 15:10 095 13 gusting 19 27.2
2014-Oct-29 15:00 093 11 gusting 17 26.7